TimeEST,TemperatureF,Dew PointF,Humidity,Sea Level PressureIn,VisibilityMPH,Wind Direction,Wind SpeedMPH,Gust SpeedMPH,PrecipitationIn,Events,Conditions,WindDirDegrees,DateUTC
12:53 AM,30.9,30.0,96,30.33,10.0,Calm,Calm,-,N/A,,Clear,0,2012-12-14 05:53:00
1:53 AM,30.0,28.9,96,30.34,10.0,Calm,Calm,-,N/A,,Clear,0,2012-12-14 06:53:00
2:53 AM,30.9,28.9,92,30.35,10.0,Calm,Calm,-,N/A,,Clear,0,2012-12-14 07:53:00
3:53 AM,30.0,28.0,92,30.35,10.0,Calm,Calm,-,N/A,,Clear,0,2012-12-14 08:53:00
4:53 AM,28.9,27.0,92,30.35,9.0,Calm,Calm,-,N/A,,Clear,0,2012-12-14 09:53:00
5:53 AM,28.9,27.0,92,30.37,9.0,Calm,Calm,-,N/A,,Clear,0,2012-12-14 10:53:00
6:53 AM,28.0,27.0,96,30.38,10.0,Calm,Calm,-,N/A,,Clear,0,2012-12-14 11:53:00
7:53 AM,28.0,26.1,92,30.40,8.0,Calm,Calm,-,N/A,,Clear,0,2012-12-14 12:53:00
8:53 AM,32.0,30.0,92,30.37,8.0,Calm,Calm,-,N/A,,Clear,0,2012-12-14 13:53:00
9:53 AM,39.9,36.0,86,30.39,9.0,Calm,Calm,-,N/A,,Clear,0,2012-12-14 14:53:00
10:53 AM,45.0,36.0,71,30.38,10.0,Calm,Calm,-,N/A,,Clear,0,2012-12-14 15:53:00
11:53 AM,50.0,35.1,57,30.34,10.0,Calm,Calm,-,N/A,,Clear,0,2012-12-14 16:53:00
12:53 PM,55.0,30.0,38,30.29,10.0,ESE,4.6,-,N/A,,Clear,120,2012-12-14 17:53:00
1:53 PM,57.0,32.0,39,30.26,10.0,Calm,Calm,-,N/A,,Clear,0,2012-12-14 18:53:00
2:53 PM,60.1,32.0,35,30.23,10.0,Calm,Calm,-,N/A,,Clear,0,2012-12-14 19:53:00
3:53 PM,60.1,32.0,35,30.22,10.0,Calm,Calm,-,N/A,,Clear,0,2012-12-14 20:53:00
4:53 PM,57.0,33.1,40,30.20,10.0,Calm,Calm,-,N/A,,Clear,0,2012-12-14 21:53:00
5:53 PM,48.9,36.0,61,30.22,10.0,Calm,Calm,-,N/A,,Clear,0,2012-12-14 22:53:00
6:53 PM,46.0,37.0,71,30.22,10.0,Calm,Calm,-,N/A,,Clear,0,2012-12-14 23:53:00
7:53 PM,44.1,37.0,76,30.23,10.0,Calm,Calm,-,N/A,,Clear,0,2012-12-15 00:53:00
8:53 PM,43.0,36.0,76,30.23,10.0,Calm,Calm,-,N/A,,Clear,0,2012-12-15 01:53:00
9:53 PM,44.1,37.0,76,30.21,10.0,North,3.5,-,N/A,,Clear,350,2012-12-15 02:53:00
10:53 PM,41.0,36.0,82,30.21,10.0,Calm,Calm,-,N/A,,Clear,0,2012-12-15 03:53:00
11:53 PM,37.9,35.1,89,30.20,10.0,West,3.5,-,N/A,,Clear,280,2012-12-15 04:53:00